Location: Conflandey
(47.7287°N, 6.0456°E)
Time: 03:15:28
(UTC+00:00)

Cosmos 2123 Rocket - Pass Details

Date: 24 October 2021
Orbit: 961 x 992 km, 82.9° (Epoch: 28 November)

Event Time Altitude Azimuth Distance (km) Brightness Sun altitude
Rises 17:52:44 0° 349° (N) 3,719 7.2 -14.3°
Reaches altitude 10° 17:55:16 10° 348° (NNW) 2,764 6.5 -14.8°
Maximum altitude 18:01:35 73° 265° (W) 1,034 4.3 -15.8°
Drops below altitude 10° 18:07:49 10° 182° (S) 2,730 6.4 -16.9°
Sets 18:10:19 0° 180° (S) 3,669 7.0 -17.3°
